This is the latest recevied weather packets stored in our database for station/object N4JTC. If no packets are shown the sender has not sent any weather packets the latest 10 day(s).
| Time | Temp. | Humidity | Pressure | Rain* | Wind** | Luminosity | Snow |
|---|---|---|---|---|---|---|---|
| 1778199303 | 25.56° C | 92% | 1013.5 hPa | 0 mm | - | 3 W/m² | - |
| 1778199004 | 25.56° C | 92% | 1013.6 hPa | 0 mm | - | 5 W/m² | - |
| 1778198702 | 25.56° C | 91% | 1013.5 hPa | 0 mm | - | 7 W/m² | - |
| 1778198403 | 25.56° C | 91% | 1013.5 hPa | 0 mm | - | 19 W/m² | - |
| 1778198103 | 25.56° C | 91% | 1013.6 hPa | 0 mm | - | 21 W/m² | - |
| 1778197803 | 25.56° C | 91% | 1013.5 hPa | 0 mm | - | 25 W/m² | - |
| 1778197503 | 25.56° C | 91% | 1013.6 hPa | 0 mm | - | 35 W/m² | - |
| 1778197203 | 25.56° C | 91% | 1013.4 hPa | 0 mm | - | 44 W/m² | - |
| 1778196903 | 25.56° C | 91% | 1013.5 hPa | 0 mm | - | 49 W/m² | - |
| 1778196603 | 25.56° C | 92% | 1013.6 hPa | 0 mm | - | 55 W/m² | - |
| 1778196303 | 25.56° C | 92% | 1013.4 hPa | 0 mm | - | 47 W/m² | - |
| 1778196003 | 25.56° C | 92% | 1013.2 hPa | 0 mm | - | 42 W/m² | - |
| 1778195703 | 25.56° C | 92% | 1013.3 hPa | 0 mm | - | 50 W/m² | - |
| 1778195403 | 25.56° C | 92% | 1013.3 hPa | 0 mm | - | 46 W/m² | - |
| 1778195103 | 26.11° C | 91% | 1013.2 hPa | 0 mm | - | 54 W/m² | - |
| 1778194503 | 26.11° C | 91% | 1013.4 hPa | 0 mm | - | 74 W/m² | - |
| 1778194203 | 26.67° C | 90% | 1013.5 hPa | 0 mm | - | 62 W/m² | - |
| 1778193903 | 26.67° C | 89% | 1013.5 hPa | 0 mm | - | 184 W/m² | - |
| 1778193603 | 26.67° C | 90% | 1013.3 hPa | 0 mm | - | 161 W/m² | - |
| 1778193303 | 26.11° C | 91% | 1013.3 hPa | 0 mm | - | 271 W/m² | - |
| 1778193003 | 26.67° C | 91% | 1013.2 hPa | 0 mm | - | 138 W/m² | - |
| 1778192703 | 26.11° C | 92% | 1013.4 hPa | 0 mm | - | 333 W/m² | - |
| 1778192403 | 26.11° C | 92% | 1013.3 hPa | 0 mm | - | 207 W/m² | - |
| 1778192103 | 25.56° C | 93% | 1013.1 hPa | 0 mm | - | 273 W/m² | - |
| 1778191803 | 25.56° C | 94% | 1013.4 hPa | 0 mm | - | 271 W/m² | - |
* Rain latest hour (hover to see other rain measurements)
** Current wind speed in m/s (hover to see current wind gust speed)